Regional Weather Roundup
Issued by NWS Boston, MA

Home | Current Version | Previous Version | Text Only | Print | Product List | Glossary On
Versions: 1 2 3 4 5 6 7 8 9 10 11 12 13 14 15 16 17 18 19 20 21 22 23 24 25 26 27 28 29 30 31 32 33 34 35 36 37 38 39 40 41 42 43 44 45 46 47 48 49 50
000
ASUS41 KBOX 041110
RWRBOX

REGIONAL WEATHER ROUNDUP
NATIONAL WEATHER SERVICE TAUNTON MA
600 AM EST WED MAR 04 2015

NOTE:  "FAIR" INDICATES FEW OR NO CLOUDS BELOW 12,000 FEET WITH NO
SIGNIFICANT WEATHER AND/OR OBSTRUCTIONS TO VISIBILITY.  THE FOLLOWING
OBSERVATION LOCATIONS DO NOT REPORT PRESENT WEATHER...PROVINCETOWN...
SMITHFIELD...BLOCK ISLAND...KEENE...AND OXFORD.

MAZALL-041200-
EASTERN MASSACHUSETTS

CITY           SKY/WX    TMP DP  RH WIND       PRES   REMARKS
BOSTON         CLOUDY    37  34  89 SW12      29.67R WCI  29
BEVERLY        CLOUDY    37  33  85 SW10      29.65R WCI  30
LAWRENCE       CLOUDY    35  33  92 SW10      29.67R WCI  27
BEDFORD        CLOUDY    36  34  92 SW9       29.66R WCI  29
BLUE HILL        N/A     35  34  96 SW14G21   29.64R WCI  26
NORWOOD        MOCLDY    37  34  89 SW8       29.67R WCI  31
MARSHFIELD     CLOUDY    39  37  93 SW6       29.70R
PLYMOUTH       LGT RAIN  37  35  92 SW13      29.69R WCI  29
TAUNTON        LGT RAIN  38  35  89 SW8       29.70R
NEW BEDFORD    LGT RAIN  37  35  92 W10       29.71R WCI  30
$$

MAZALL-041200-
CAPE COD AND THE ISLANDS

CITY           SKY/WX    TMP DP  RH WIND       PRES   REMARKS
FALMOUTH       CLOUDY    34  34 100 W21G28    29.71R WCI  22
HYANNIS        CLOUDY    36  34  92 SW13G23   29.70R WCI  27
CHATHAM        MIX PCPN  34  34 100 SW15G22   29.72R WCI  24
PROVINCETOWN   CLOUDY    36  32  87 SW13      29.70R WCI  27
NANTUCKET      CLOUDY    37  35  92 W22G32    29.74R WCI  26
MARTHAS VNYRD  LGT RAIN  36  32  85 SW14      29.73R WCI  27
$$

MAZALL-041200-
CENTRAL AND WESTERN MASSACHUSETTS

CITY           SKY/WX    TMP DP  RH WIND       PRES   REMARKS
WORCESTER      CLOUDY    35  32  88 W21G29    29.63R WCI  24
FITCHBURG      CLOUDY    38  32  79 SW8       29.66R
ORANGE         CLOUDY    35  32  88 SW12      29.68R WCI  27
SPRINGFIELD    CLOUDY    35  33  92 SW9       29.71R WCI  27
WESTFIELD      CLOUDY    35  32  88 S8        29.71R WCI  29
NORTH ADAMS    CLOUDY    37  30  75 W15       29.70R WCI  28
PITTSFIELD     CLOUDY    32  29  88 SW6       29.67R WCI  26
$$

RIZALL-041200-
RHODE ISLAND

CITY           SKY/WX    TMP DP  RH WIND       PRES   REMARKS
PROVIDENCE     LGT RAIN  37  33  85 SW12      29.72R WCI  29
NEWPORT        CLOUDY    35  34  96 VRB6      29.72R WCI  30
BLOCK ISLAND   CLOUDY    36  32  87 SW15      29.74R WCI  26
SMITHFIELD     CLOUDY    36  32  87 SW6       29.67R WCI  31
WESTERLY       LGT RAIN  34  33  96 W10G18    29.76R WCI  26
$$

CTZALL-041200-
CONNECTICUT

CITY           SKY/WX    TMP DP  RH WIND       PRES   REMARKS
BRADLEY INTL   CLOUDY    36  32  85 S8        29.73R WCI  30
HARTFORD       LGT RAIN  35  33  92 S6        29.75R WCI  30
BRIDGEPORT     LGT RAIN  33  32  96 SW10      29.78R FOG     WCI  25
DANBURY        LGT RAIN  33  30  88 W12       29.76R FOG     WCI  24
GROTON         LGT RAIN  34  34 100 W14       29.75R WCI  25
NEW HAVEN      LGT RAIN  34  32  92 SW8       29.77R WCI  27
CHESTER        NOT AVBL
MERIDEN        LGT RAIN  34  32  92 S5        29.76R FOG     WCI  30
WILLIMANTIC    LGT RAIN  36  33  89 SW3       29.73R
OXFORD         LGT RAIN  34  28  80 W8        29.94R FOG     WCI  27
$$

MEZ002-015-021-024-NHZ003-005-008-011-012-014-VTZ005-008-041200-
NORTHERN NEW ENGLAND

CITY           SKY/WX    TMP DP  RH WIND       PRES   REMARKS
PORTLAND ME    CLOUDY    31  28  89 SW10      29.60S WCI  22
BANGOR ME      CLOUDY    33  30  88 CALM      29.56F
CONCORD NH     CLOUDY    27  25  92 CALM      29.63R
MANCHESTER NH  CLOUDY    34  33  96 SW5       29.62R WCI  30
NASHUA NH      CLOUDY    33  32  96 CALM      29.65R
PORTSMOUTH NH  CLOUDY    33  31  92 W3        29.60R
JAFFREY NH     CLOUDY    34  31  88 SW9       29.62R WCI  27
KEENE NH       CLOUDY    34  30  86 SW7       29.66R WCI  28
BURLINGTON VT  CLOUDY    32  26  78 W3        29.65R
MT. WASHINGTON BLWGSNOW  12  12 100 W77         N/A  VSB 0   WCI -18
$$

NYZ052-076-041200-
EASTERN NEW YORK

CITY           SKY/WX    TMP DP  RH WIND       PRES   REMARKS
ALBANY         CLOUDY    33  28  81 E3        29.75R
NEW YORK CITY  LGT RAIN  37  32  82 SW8       29.80R WCI  31
$$

ANZALL-041200-
MARINE OBSERVATIONS

STATION/POSITION TIME  TEMP    WIND        PRES    VSBY  WAVE
                       AIR SEA DIR/SP/G                  HT/PER
                 (UTC) (F)     (DEG/KT/KT) (MB)    (MI)  (FT/S)
BOSTON BUOY      1050   37 36  240/ 10/ 12 1005.0R         3/ 5
BUZZARDS BAY     1000          250/ 21/ 22 1006.6R
NANTUCKET SOUND  1050   35 31  240/ 17/ 19 1006.9R         2/ 4
MASS BAY-STELLWA 1004   37 36  230/ 14/ 16   N/A    1 7/8  5/ 8
ISLE OF SHOALS   1000   35     220/ 20/ 22 1002.0S
S OF BLOCK IS    1008      37                N/A           7/ 7
$$

......................KEY.........................
  SKY/WX - SKY CONDITION/PRESENT WEATHER
  TMP    - TEMPERATURE IN FAHRENHEIT
  DWPT   - DEWPOINT IN FAHRENHEIT
  RH     - RELATIVE HUMIDITY IN PERCENT
  WIND   - DIRECTION AND SPEED IN MPH
  PRES   - MEAN SEA LEVEL PRESSURE IN INCHES OF HG
  WCI    - WIND CHILL INDEX
  VSB    - VISIBILITY IN MILES
  HX     - HEAT INDEX
  TC     - TEMPERATURE IN CELSIUS
  VRB    - VARIABLE WIND DIRECTION
  N/A    - NOT AVAILABLE


USA.gov is the U.S. government's official web portal to all federal, state and local government web resources and services.